QPF
0.00 0.00 0.01 0.00 0.00 0.00 0.00 0.00 0.00 0.01 0.01 0.01 0.00 0.00 0.00 0.00 0.00 0.00 0.00 0.00 0.01 0.00 0.00 0.00 0.00 0.00 0.00 0.00 0.00 0.00 0.00 0.00 0.00 0.00 0.00 0.00 0.00 0.00 0.00 0.00 0.00 0.00 0.00
0.00 0.00 0.00 0.00 0.00 0.00 0.00 0.00 0.00 0.00 0.00 0.01 0.01 0.00 0.00 0.00 0.00 0.00 0.00 0.00 0.00 0.00 0.00 0.00 0.00 0.00 0.00 0.00 0.00 0.00 0.00 0.00 0.00 0.00 0.00 0.00 0.00 0.00 0.00 0.00 0.00 0.00 0.00
0.00 0.00 0.00 0.00 0.00 0.00 0.00 0.00 0.00 0.00 0.00 0.00 0.00 0.00 0.00 0.00 0.00 0.00 0.00 0.00 0.00 0.01 0.00 0.00 0.00 0.00 0.00 0.00 0.00 0.00 0.00 0.00 0.00 0.00 0.00 0.00 0.00 0.00 0.00 0.00 0.00 0.00 0.01
0.00 0.00 0.00 0.00 0.00 0.00 0.00 0.00 0.00 0.00 0.00 0.00 0.00 0.00 0.00 0.00 0.00 0.00 0.01 0.01 0.00 0.01 0.01 0.00 0.00 0.00 0.00 0.00 0.00 0.00 0.00 0.00 0.00 0.00 0.00 0.00 0.00 0.00 0.00 0.00 0.00 0.00 0.00
0.00 0.00 0.00 0.00 0.00 0.00 0.00 0.01 0.01 0.00 0.00 0.00 0.00 0.00 0.00 0.00 0.00 0.00 0.01 0.01 0.00 0.00 0.01 0.00 0.00 0.00 0.00 0.00 0.00 0.00 0.00 0.00 0.00 0.00 0.00 0.00 0.00 0.00 0.00 0.00 0.00 0.00 0.00
0.00 0.00 0.00 0.00 0.00 0.00 0.00 0.01 0.01 0.00 0.00 0.00 0.00 0.00 0.00 0.00 0.00 0.00 0.00 0.00 0.00 0.00 0.00 0.00 0.00 0.00 0.00 0.00 0.00 0.00 0.00 0.00 0.00 0.00 0.00 0.00 0.00 0.00 0.00 0.00 0.00 0.00 0.00
0.00 0.00 0.00 0.00 0.00 0.00 0.00 0.01 0.01 0.00 0.00 0.00 0.00 0.00 0.00 0.00 0.00 0.00 0.00 0.00 0.00 0.00 0.00 0.00 0.00 0.00 0.00 0.00 0.00 0.00 0.00 0.00 0.00 0.00 0.00 0.00 0.00 0.00 0.00 0.00 0.00 0.00 0.00
0.00 0.00 0.00 0.00 0.00 0.00 0.00 0.00 0.00 0.00 0.00 0.00 0.00 0.00 0.00 0.00 0.00 0.00 0.00 0.00 0.00 0.00 0.00 0.00 0.00 0.00 0.00 0.00 0.00 0.00 0.00 0.00 0.00 0.00 0.00 0.00 0.00 0.00 0.00 0.00 0.00 0.00 0.00
0.00 0.00 0.01 0.00 0.00 0.00 0.00 0.00 0.00 0.00 0.00 0.00 0.00 0.00 0.00 0.00 0.00 0.00 0.00 0.00 0.00 0.00 0.00 0.00 0.00 0.00 0.00 0.00 0.00 0.00 0.00 0.00 0.00 0.00 0.00 0.00 0.00 0.00 0.00 0.00 0.00 0.00 0.00
0.00 0.00 0.01 0.00 0.00 0.00 0.00 0.00 0.00 0.00 0.00 0.00 0.00 0.00 0.00 0.00 0.00 0.00 0.00 0.00 0.00 0.00 0.00 0.00 0.00 0.00 0.00 0.00 0.00 0.00 0.00 0.00 0.00 0.00 0.00 0.00 0.00 0.00 0.00 0.00 0.00 0.00 0.00
0.00 0.00 0.01 0.00 0.00 0.00 0.00 0.00 0.00 0.00 0.00 0.00 0.00 0.00 0.00 0.00 0.00 0.00 0.00 0.00 0.00 0.00 0.00 0.00 0.00 0.00 0.00 0.00 0.00 0.00 0.00 0.00 0.00 0.00 0.00 0.00 0.00 0.00 0.00 0.00 0.00 0.00 0.00
0.00 0.00 0.00 0.00 0.00 0.00 0.00 0.00 0.00 0.00 0.00 0.00 0.00 0.00 0.00 0.00 0.00 0.00 0.00 0.00 0.00 0.00 0.00 0.00 0.00 0.00 0.00 0.00 0.00 0.00 0.00 0.00 0.00 0.00 0.00 0.00 0.00 0.00 0.00 0.00 0.00 0.00 0.01
0.00 0.00 0.00 0.00 0.00 0.00 0.00 0.00 0.00 0.00 0.00 0.00 0.00 0.00 0.00 0.00 0.00 0.00 0.00 0.00 0.00 0.00 0.00 0.00 0.00 0.00 0.00 0.00 0.00 0.00 0.00 0.00 0.00 0.00 0.00 0.00 0.00 0.00 0.00 0.00 0.00 0.00 0.01
0.00 0.00 0.00 0.00 0.00 0.00 0.00 0.00 0.00 0.00 0.00 0.00 0.00 0.00 0.00 0.00 0.00 0.00 0.00 0.00 0.00 0.00 0.00 0.00 0.00 0.00 0.00 0.00 0.00 0.00 0.00 0.00 0.00 0.00 0.00 0.00 0.00 0.00 0.00 0.00 0.00 0.00 0.01
0.00 0.00 0.00 0.00 0.00 0.00 0.00 0.00 0.00 0.00 0.00 0.00 0.00 0.00 0.00 0.00 0.00 0.00 0.00 0.00 0.00 0.00 0.00 0.00 0.00 0.00 0.00 0.00 0.00 0.00 0.00 0.00 0.00 0.00 0.00 0.00 0.00 0.00 0.00 0.00 0.00 0.00 0.00
0.00 0.00 0.00 0.00 0.00 0.00 0.00 0.00 0.00 0.00 0.00 0.00 0.00 0.00 0.00 0.00 0.00 0.00 0.00 0.00 0.00 0.00 0.00 0.00 0.00 0.00 0.00 0.00 0.00 0.00 0.00 0.00 0.00 0.00 0.00 0.00 0.00 0.00 0.00 0.00 0.00 0.00 0.00
0.00 0.00 0.00 0.00 0.00 0.00 0.00 0.00 0.00 0.00 0.00 0.00 0.00 0.00 0.00 0.00 0.00 0.00 0.00 0.00 0.00 0.00 0.00 0.00 0.00 0.00 0.00 0.00 0.00 0.00 0.00 0.00 0.00 0.00 0.00 0.00 0.00 0.00 0.00 0.00 0.00 0.00 0.00
0.00 0.00 0.00 0.00 0.00 0.00 0.00 0.00 0.00 0.00 0.00 0.00 0.00 0.00 0.00 0.00 0.00 0.00 0.00 0.00 0.00 0.00 0.00 0.00 0.00 0.00 0.00 0.00 0.00 0.00 0.00 0.00 0.00 0.00 0.00 0.00 0.00 0.00 0.00 0.00 0.00 0.00 0.00
0.00 0.00 0.00 0.00 0.00 0.00 0.00 0.00 0.00 0.00 0.00 0.00 0.00 0.00 0.00 0.00 0.00 0.00 0.00 0.00 0.00 0.00 0.00 0.00 0.00 0.00 0.00 0.00 0.00 0.00 0.00 0.00 0.00 0.00 0.00 0.00 0.00 0.00 0.00 0.00 0.00 0.00 0.00
0.00 0.00 0.00 0.00 0.00 0.00 0.00 0.00 0.00 0.00 0.00 0.00 0.00 0.00 0.00 0.00 0.00 0.00 0.00 0.00 0.00 0.00 0.00 0.00 0.00 0.00 0.00 0.00 0.00 0.00 0.00 0.00 0.00 0.00 0.00 0.00 0.00 0.00 0.00 0.00 0.00 0.00 0.00
0.00 0.00 0.00 0.00 0.00 0.00 0.00 0.00 0.00 0.00 0.00 0.00 0.00 0.00 0.00 0.00 0.00 0.00 0.00 0.00 0.00 0.00 0.00 0.00 0.00 0.00 0.00 0.00 0.00 0.00 0.00 0.00 0.00 0.00 0.00 0.00 0.00 0.00 0.00 0.00 0.00 0.00 0.00
0.00 0.00 0.00 0.00 0.00 0.00 0.00 0.00 0.00 0.00 0.00 0.00 0.00 0.00 0.01 0.00 0.01 0.00 0.00 0.00 0.00 0.00 0.00 0.00 0.00 0.00 0.00 0.00 0.00 0.00 0.00 0.00 0.00 0.00 0.00 0.00 0.00 0.00 0.00 0.00 0.00 0.00 0.00
0.00 0.00 0.00 0.00 0.00 0.00 0.00 0.00 0.00 0.00 0.00 0.00 0.00 0.00 0.01 0.01 0.01 0.01 0.01 0.01 0.01 0.01 0.02 0.00 0.00 0.00 0.00 0.00 0.00 0.00 0.00 0.00 0.00 0.00 0.00 0.00 0.00 0.00 0.00 0.00 0.00 0.00 0.00
0.00 0.00 0.00 0.00 0.00 0.00 0.00 0.00 0.00 0.00 0.00 0.00 0.00 0.00 0.00 0.00 0.01 0.01 0.02 0.02 0.02 0.01 0.01 0.01 0.00 0.00 0.00 0.00 0.00 0.00 0.00 0.00 0.00 0.00 0.00 0.00 0.00 0.00 0.00 0.00 0.00 0.00 0.00
0.00 0.00 0.00 0.00 0.00 0.00 0.00 0.00 0.00 0.00 0.00 0.00 0.00 0.01 0.00 0.00 0.00 0.00 0.01 0.01 0.01 0.00 0.00 0.00 0.00 0.00 0.00 0.00 0.00 0.00 0.00 0.00 0.00 0.00 0.00 0.00 0.00 0.00 0.00 0.00 0.00 0.00 0.00
0.00 0.00 0.00 0.00 0.00 0.00 0.00 0.00 0.00 0.00 0.00 0.00 0.00 0.00 0.00 0.00 0.00 0.00 0.00 0.00 0.00 0.00 0.00 0.00 0.00 0.00 0.00 0.00 0.00 0.00 0.00 0.00 0.00 0.00 0.00 0.00 0.00 0.00 0.00 0.00 0.00 0.00 0.00
MSLP
1021.10 1021.41 1021.62 1021.69 1021.75 1021.93 1022.08 1022.08 1021.96 1021.85 1021.83 1021.78 1022.01 1022.06 1022.08 1021.99 1021.91 1021.89 1021.90 1021.92 1021.91 1021.95 1021.99 1022.07 1022.04 1022.07 1022.03 1022.04 1022.04 1022.01 1021.97 1021.91 1021.84 1021.78 1021.75 1021.68 1021.65 1021.67 1021.67 1021.54 1021.28 1021.13 1021.26
1020.91 1021.44 1022.00 1022.12 1022.13 1022.23 1022.38 1022.40 1022.35 1022.21 1022.13 1022.11 1022.30 1022.33 1022.43 1022.39 1022.32 1022.32 1022.39 1022.38 1022.39 1022.44 1022.48 1022.52 1022.60 1022.60 1022.62 1022.61 1022.56 1022.56 1022.49 1022.47 1022.41 1022.26 1022.00 1021.99 1022.13 1022.13 1022.17 1022.08 1021.82 1021.71 1021.70
1020.93 1021.46 1021.99 1022.42 1022.55 1022.65 1022.71 1022.61 1022.60 1022.56 1022.44 1022.52 1022.61 1022.77 1022.82 1022.75 1022.80 1022.72 1022.87 1022.80 1022.89 1022.81 1022.90 1023.02 1023.13 1023.11 1023.13 1023.11 1023.07 1023.08 1023.08 1023.04 1022.88 1022.65 1022.18 1021.93 1022.44 1022.64 1022.60 1022.59 1022.43 1022.24 1022.15
1021.13 1021.44 1021.97 1022.61 1022.69 1022.76 1022.79 1022.85 1022.82 1022.79 1022.91 1022.99 1023.00 1023.07 1023.12 1023.09 1023.13 1023.21 1023.26 1023.34 1023.44 1023.35 1023.36 1023.51 1023.63 1023.65 1023.67 1023.65 1023.64 1023.62 1023.60 1023.51 1023.32 1022.90 1022.39 1022.38 1022.59 1023.01 1023.00 1023.02 1022.94 1022.85 1022.59
1021.35 1021.64 1022.44 1022.77 1022.89 1022.98 1023.09 1023.17 1023.16 1023.19 1023.28 1023.36 1023.31 1023.31 1023.38 1023.50 1023.65 1023.67 1023.74 1023.82 1023.90 1023.91 1023.91 1023.94 1024.10 1024.13 1024.13 1024.09 1024.15 1024.16 1024.13 1024.05 1023.73 1023.20 1023.18 1022.99 1022.91 1023.40 1023.41 1023.46 1023.38 1023.29 1023.18
1021.68 1021.92 1022.82 1022.95 1023.04 1023.20 1023.32 1023.36 1023.41 1023.50 1023.64 1023.63 1023.63 1023.74 1023.83 1024.05 1024.13 1024.11 1024.21 1024.27 1024.39 1024.38 1024.39 1024.53 1024.60 1024.57 1024.56 1024.59 1024.61 1024.63 1024.54 1024.21 1023.71 1023.56 1023.53 1023.70 1023.72 1023.99 1023.97 1023.99 1023.94 1023.88 1023.72
1021.88 1022.17 1022.80 1023.28 1023.37 1023.55 1023.63 1023.58 1023.58 1023.78 1023.85 1023.90 1024.08 1024.15 1024.17 1024.38 1024.56 1024.65 1024.67 1024.68 1024.79 1024.93 1024.98 1025.01 1025.04 1025.04 1025.03 1025.04 1025.02 1024.98 1024.96 1024.69 1024.07 1024.03 1024.00 1023.99 1024.30 1024.39 1024.36 1024.35 1024.30 1024.19 1024.05
1022.02 1022.46 1022.97 1023.66 1023.68 1023.75 1023.96 1023.99 1023.94 1024.00 1024.12 1024.28 1024.29 1024.33 1024.51 1024.77 1024.96 1025.10 1025.15 1025.14 1025.25 1025.36 1025.42 1025.41 1025.42 1025.40 1025.47 1025.51 1025.51 1025.47 1025.35 1025.00 1024.55 1024.62 1024.57 1024.65 1024.92 1024.76 1024.72 1024.67 1024.57 1024.47 1024.38
1022.37 1022.52 1022.96 1023.50 1023.91 1024.20 1024.46 1024.54 1024.61 1024.53 1024.52 1024.68 1024.77 1024.89 1025.07 1025.27 1025.37 1025.57 1025.67 1025.63 1025.66 1025.78 1025.86 1025.88 1025.87 1025.82 1025.79 1025.77 1025.78 1025.74 1025.67 1025.35 1024.74 1024.89 1024.71 1024.80 1025.11 1024.93 1024.86 1024.81 1024.74 1024.63 1024.51
1022.77 1022.80 1022.94 1023.47 1023.72 1024.02 1024.56 1025.01 1025.12 1025.04 1025.12 1025.10 1025.19 1025.41 1025.62 1025.81 1025.90 1026.00 1026.04 1026.11 1026.17 1026.25 1026.25 1026.29 1026.25 1026.23 1026.21 1026.19 1026.13 1026.07 1025.87 1025.51 1025.06 1024.98 1024.95 1025.28 1025.20 1024.94 1024.87 1024.85 1024.76 1024.66 1024.50
1023.21 1023.28 1023.10 1023.49 1023.84 1024.23 1024.45 1025.17 1025.37 1025.57 1025.57 1025.68 1025.67 1025.81 1025.75 1025.68 1025.91 1025.91 1026.39 1026.48 1026.45 1026.45 1026.55 1026.63 1026.61 1026.60 1026.53 1026.43 1026.34 1026.17 1025.76 1025.36 1025.22 1025.23 1025.26 1025.96 1025.62 1025.15 1024.83 1024.74 1024.66 1024.51 1024.31
1023.12 1023.18 1023.26 1023.46 1023.80 1024.30 1024.71 1024.99 1025.13 1025.57 1025.42 1025.60 1025.69 1025.76 1025.83 1026.01 1026.19 1026.28 1026.73 1026.86 1026.85 1026.84 1026.80 1026.81 1026.82 1026.71 1026.30 1025.97 1025.99 1026.10 1025.73 1025.76 1025.57 1025.59 1025.67 1026.15 1025.84 1025.51 1025.19 1024.90 1024.63 1024.32 1024.06
1022.86 1023.16 1023.65 1023.50 1023.75 1024.07 1024.53 1024.86 1025.14 1025.38 1025.53 1025.70 1025.89 1026.01 1026.22 1026.27 1026.45 1026.45 1026.60 1026.58 1026.65 1026.94 1026.53 1026.60 1026.48 1026.38 1026.41 1026.16 1026.09 1025.98 1025.99 1025.88 1025.74 1025.71 1025.99 1026.30 1026.02 1025.64 1025.30 1025.02 1024.69 1024.43 1024.20
1022.48 1023.09 1023.44 1023.78 1023.80 1024.03 1024.26 1024.59 1024.93 1025.28 1025.62 1025.76 1025.96 1026.19 1026.24 1026.22 1026.43 1026.44 1026.41 1026.56 1026.58 1026.63 1026.68 1026.65 1026.59 1026.66 1026.50 1026.47 1026.39 1026.19 1026.10 1025.92 1025.78 1025.73 1025.83 1026.40 1026.33 1025.98 1025.61 1025.21 1024.90 1024.68 1024.38
1022.50 1023.09 1023.32 1023.66 1023.90 1024.14 1024.36 1024.32 1024.58 1024.88 1025.24 1025.45 1025.85 1026.13 1026.14 1026.25 1026.44 1026.56 1026.62 1026.61 1026.64 1026.73 1026.64 1026.60 1026.58 1026.54 1026.47 1026.45 1026.37 1026.28 1026.15 1026.10 1026.02 1025.93 1025.87 1026.49 1026.44 1026.18 1025.75 1025.42 1025.16 1025.04 1024.82
1022.41 1023.16 1023.54 1023.62 1023.91 1024.29 1024.76 1024.65 1024.70 1024.92 1025.15 1025.41 1025.62 1025.81 1026.08 1026.17 1026.36 1026.39 1026.50 1026.60 1026.71 1026.73 1026.74 1026.64 1026.55 1026.47 1026.43 1026.49 1026.32 1026.38 1026.26 1026.12 1026.09 1026.09 1026.06 1026.29 1026.77 1026.64 1026.30 1026.03 1025.80 1025.43 1025.15
1021.81 1022.33 1023.12 1023.58 1024.06 1024.42 1024.64 1024.90 1024.83 1024.98 1025.17 1025.26 1025.47 1025.78 1025.90 1026.05 1026.17 1026.23 1026.30 1026.39 1026.48 1026.68 1026.74 1026.69 1026.63 1026.57 1026.34 1026.38 1026.23 1026.26 1026.19 1026.18 1026.19 1026.22 1026.17 1026.21 1026.25 1026.73 1026.69 1026.55 1026.34 1025.96 1025.57
1021.19 1021.71 1022.45 1022.90 1023.41 1024.06 1024.44 1024.60 1024.45 1024.69 1024.99 1025.12 1025.31 1025.54 1025.86 1026.02 1026.14 1026.23 1026.22 1026.25 1026.39 1026.48 1026.43 1026.39 1026.36 1026.25 1026.29 1026.15 1026.08 1025.87 1025.86 1026.04 1026.26 1026.29 1026.39 1026.34 1026.49 1026.46 1026.65 1027.13 1027.02 1026.67 1026.31
1020.54 1021.27 1021.78 1022.43 1022.76 1023.17 1023.63 1024.00 1024.16 1024.45 1024.73 1024.96 1025.10 1025.27 1025.57 1025.87 1026.13 1026.02 1026.09 1026.11 1026.29 1026.31 1026.69 1026.70 1026.49 1026.83 1026.52 1026.26 1026.25 1025.91 1025.85 1026.10 1026.42 1026.45 1026.69 1026.86 1026.99 1027.03 1026.93 1027.21 1027.45 1027.51 1027.04
1020.10 1020.65 1021.15 1021.82 1022.27 1022.66 1023.12 1023.56 1023.84 1024.08 1024.28 1024.44 1024.64 1024.84 1025.10 1025.59 1025.95 1026.10 1025.77 1025.91 1026.31 1026.48 1026.58 1026.58 1026.66 1026.43 1026.76 1026.55 1026.39 1026.17 1026.18 1026.33 1026.51 1026.66 1026.94 1027.14 1027.33 1027.17 1027.27 1027.45 1027.46 1027.75 1027.94
1019.52 1020.01 1020.38 1020.91 1021.37 1022.03 1022.53 1023.02 1023.35 1023.40 1023.63 1023.81 1024.09 1024.54 1025.01 1025.26 1025.46 1025.72 1025.85 1025.91 1026.01 1026.03 1026.21 1026.23 1026.64 1026.62 1026.74 1026.68 1026.36 1026.10 1026.42 1026.68 1026.72 1026.80 1026.89 1027.05 1027.52 1027.70 1027.77 1027.80 1027.85 1027.85 1027.95
1018.90 1019.17 1019.63 1020.18 1020.64 1021.29 1021.64 1021.90 1022.20 1022.58 1022.83 1022.87 1023.29 1023.98 1024.23 1024.54 1024.82 1025.09 1025.28 1025.54 1025.54 1025.86 1026.20 1026.38 1026.57 1026.64 1026.68 1026.75 1026.41 1026.46 1026.07 1026.42 1026.60 1026.87 1027.22 1027.35 1027.54 1027.78 1027.95 1028.26 1028.51 1028.65 1028.70
1018.09 1018.36 1018.71 1019.22 1019.75 1020.38 1020.88 1021.30 1021.80 1022.02 1022.41 1022.65 1023.00 1023.33 1023.63 1023.86 1024.04 1024.26 1024.51 1024.83 1025.09 1025.28 1025.44 1025.87 1026.15 1026.40 1026.50 1026.93 1026.83 1026.66 1026.32 1026.25 1026.79 1027.12 1027.36 1027.65 1027.85 1028.03 1028.39 1028.64 1028.98 1029.24 1029.22
1016.97 1017.70 1018.11 1018.30 1018.75 1019.33 1019.94 1020.49 1020.89 1021.10 1021.39 1021.64 1021.92 1022.26 1022.44 1023.02 1023.37 1023.72 1023.93 1024.15 1024.33 1024.42 1024.88 1025.29 1025.72 1026.00 1026.24 1026.53 1026.95 1027.13 1027.18 1027.20 1026.90 1026.94 1027.55 1027.86 1027.86 1028.18 1028.72 1028.96 1029.09 1029.36 1029.39
1016.45 1016.77 1017.27 1017.61 1017.93 1018.45 1019.11 1019.47 1020.03 1020.38 1020.50 1020.78 1021.20 1021.60 1022.00 1022.30 1022.71 1023.02 1023.31 1023.61 1023.84 1024.29 1024.77 1025.32 1025.81 1026.00 1026.22 1026.39 1026.54 1027.14 1027.62 1027.71 1027.72 1027.41 1027.26 1027.49 1027.94 1028.39 1028.87 1029.40 1029.74 1029.66 1029.58
1015.69 1016.16 1016.61 1016.99 1017.17 1017.77 1018.34 1018.86 1018.86 1019.31 1019.92 1020.26 1020.70 1021.08 1021.52 1021.90 1022.30 1022.48 1022.85 1023.24 1023.85 1024.43 1024.84 1025.37 1025.84 1026.00 1026.34 1026.64 1027.00 1027.39 1027.44 1027.54 1027.68 1027.93 1028.19 1028.33 1028.41 1028.49 1028.94 1029.66 1029.87 1029.88 1029.88
Thickness
5687 5685 5686 5684 5687 5686 5686 5688 5692 5693 5694 5695 5692 5694 5694 5695 5696 5695 5695 5695 5695 5695 5694 5693 5693 5692 5692 5692 5691 5690 5689 5689 5688 5686 5685 5683 5681 5679 5677 5677 5676 5676 5673
5687 5684 5681 5681 5683 5684 5684 5686 5688 5690 5691 5692 5691 5691 5691 5693 5693 5693 5692 5693 5693 5692 5691 5690 5689 5689 5689 5688 5688 5687 5686 5684 5683 5683 5682 5681 5678 5677 5674 5673 5673 5672 5670
5687 5683 5681 5679 5680 5680 5681 5683 5685 5687 5689 5688 5689 5689 5689 5690 5690 5690 5690 5691 5690 5690 5689 5688 5687 5687 5686 5685 5684 5682 5681 5680 5679 5679 5681 5680 5675 5673 5672 5670 5670 5669 5668
5686 5684 5681 5678 5679 5679 5680 5682 5685 5686 5685 5685 5687 5687 5687 5688 5688 5688 5687 5687 5687 5687 5686 5685 5683 5682 5681 5680 5679 5678 5677 5677 5676 5677 5679 5677 5674 5670 5669 5667 5666 5665 5665
5686 5684 5679 5678 5678 5679 5679 5681 5682 5683 5682 5682 5684 5685 5686 5685 5684 5684 5685 5684 5684 5683 5683 5682 5680 5679 5678 5677 5676 5675 5674 5674 5674 5675 5674 5674 5673 5668 5667 5665 5664 5663 5662
5684 5684 5678 5679 5679 5679 5679 5680 5681 5681 5681 5682 5683 5684 5684 5683 5682 5683 5683 5682 5681 5681 5680 5678 5677 5677 5676 5675 5674 5673 5672 5673 5675 5674 5673 5670 5668 5665 5664 5662 5660 5658 5657
5683 5682 5677 5677 5678 5678 5678 5679 5681 5680 5681 5682 5682 5681 5682 5681 5681 5681 5680 5680 5679 5677 5676 5675 5674 5673 5673 5672 5672 5672 5671 5671 5673 5671 5670 5668 5664 5662 5660 5658 5656 5654 5653
5684 5681 5677 5675 5677 5678 5677 5678 5680 5680 5680 5680 5680 5680 5680 5680 5678 5677 5677 5677 5676 5674 5673 5673 5672 5672 5670 5670 5669 5669 5668 5669 5669 5666 5665 5662 5658 5657 5655 5653 5651 5650 5648
5682 5683 5679 5678 5676 5676 5676 5677 5677 5678 5678 5678 5678 5679 5678 5677 5676 5674 5673 5673 5673 5672 5671 5670 5669 5669 5669 5669 5668 5667 5666 5666 5666 5663 5662 5659 5655 5654 5652 5650 5648 5647 5645
5682 5683 5681 5679 5679 5677 5674 5674 5675 5677 5677 5677 5677 5676 5675 5674 5673 5672 5671 5670 5669 5668 5668 5667 5667 5667 5666 5665 5665 5664 5663 5663 5663 5661 5660 5656 5654 5653 5652 5649 5647 5645 5643
5681 5681 5681 5680 5679 5676 5675 5673 5673 5674 5675 5675 5674 5673 5673 5672 5671 5671 5670 5668 5668 5667 5666 5665 5664 5664 5663 5663 5662 5662 5662 5661 5661 5658 5656 5650 5649 5649 5648 5646 5644 5643 5641
5680 5681 5681 5680 5680 5676 5673 5673 5673 5671 5673 5673 5673 5672 5672 5671 5670 5669 5667 5666 5665 5665 5664 5663 5662 5662 5662 5662 5660 5658 5658 5656 5655 5652 5649 5646 5644 5643 5642 5642 5641 5639 5638
5686 5681 5679 5680 5681 5679 5675 5674 5674 5673 5672 5673 5671 5670 5669 5669 5668 5667 5666 5666 5665 5663 5664 5662 5661 5661 5659 5659 5657 5655 5653 5652 5650 5648 5645 5643 5642 5640 5639 5638 5637 5636 5634
5688 5683 5679 5678 5680 5680 5677 5675 5674 5673 5671 5670 5669 5668 5668 5668 5667 5666 5666 5665 5664 5663 5661 5660 5659 5657 5656 5654 5652 5651 5650 5649 5648 5646 5644 5639 5637 5635 5634 5633 5632 5630 5628
5685 5683 5680 5678 5678 5678 5677 5678 5676 5675 5673 5670 5668 5667 5667 5666 5665 5664 5663 5662 5661 5659 5659 5658 5656 5654 5653 5651 5649 5648 5647 5645 5643 5641 5639 5634 5632 5630 5629 5627 5626 5622 5619
5684 5680 5678 5677 5675 5674 5674 5675 5675 5673 5672 5671 5669 5668 5667 5666 5664 5664 5662 5661 5659 5657 5656 5655 5653 5651 5650 5647 5646 5644 5642 5641 5639 5636 5632 5628 5625 5622 5620 5618 5616 5614 5612
5686 5685 5680 5677 5674 5673 5672 5672 5672 5673 5673 5672 5671 5669 5668 5666 5664 5663 5661 5660 5658 5655 5653 5651 5649 5648 5647 5644 5643 5640 5638 5636 5633 5630 5628 5624 5622 5617 5613 5610 5607 5605 5603
5691 5687 5684 5680 5678 5673 5671 5672 5675 5674 5672 5672 5670 5668 5666 5664 5662 5661 5660 5659 5656 5654 5652 5650 5648 5647 5644 5642 5640 5638 5636 5633 5629 5625 5621 5617 5612 5610 5606 5600 5596 5593 5590
5695 5690 5687 5683 5682 5680 5677 5674 5674 5673 5671 5670 5669 5667 5665 5662 5661 5659 5657 5656 5654 5652 5649 5646 5644 5639 5638 5638 5634 5633 5630 5626 5621 5617 5611 5607 5602 5598 5595 5590 5585 5580 5577
5695 5693 5691 5687 5684 5683 5681 5677 5675 5674 5672 5670 5668 5667 5665 5661 5658 5655 5655 5653 5648 5647 5645 5643 5640 5637 5632 5630 5627 5627 5623 5617 5612 5608 5602 5596 5592 5590 5586 5579 5574 5568 5561
5696 5694 5693 5691 5688 5685 5683 5679 5676 5675 5675 5674 5670 5667 5664 5660 5657 5654 5651 5648 5645 5643 5641 5638 5635 5633 5628 5625 5623 5621 5615 5608 5604 5600 5595 5589 5582 5577 5573 5569 5563 5557 5551
5696 5696 5694 5691 5689 5686 5684 5683 5682 5678 5678 5678 5675 5669 5666 5662 5658 5655 5651 5646 5643 5640 5635 5633 5629 5626 5624 5619 5617 5611 5610 5605 5599 5592 5584 5579 5574 5569 5564 5557 5550 5544 5538
5696 5697 5696 5693 5691 5688 5684 5682 5681 5679 5676 5675 5672 5669 5666 5663 5660 5656 5652 5646 5643 5639 5637 5631 5627 5622 5619 5611 5609 5607 5603 5599 5589 5583 5576 5570 5563 5557 5550 5545 5538 5530 5524
5702 5694 5694 5697 5695 5692 5688 5684 5682 5679 5676 5675 5674 5671 5669 5662 5658 5653 5650 5647 5642 5639 5635 5630 5624 5620 5616 5609 5602 5597 5592 5587 5584 5579 5568 5559 5555 5547 5538 5531 5526 5519 5513
5696 5696 5695 5694 5696 5693 5689 5687 5681 5679 5679 5676 5673 5670 5666 5662 5656 5652 5648 5644 5640 5635 5629 5623 5617 5612 5608 5604 5600 5590 5581 5576 5572 5570 5565 5557 5547 5537 5528 5518 5511 5506 5501
5695 5694 5694 5693 5694 5690 5687 5683 5685 5680 5674 5671 5669 5666 5663 5659 5654 5649 5645 5640 5634 5627 5622 5615 5608 5603 5598 5593 5587 5581 5578 5574 5568 5562 5553 5544 5534 5526 5516 5506 5499 5493 5487